User: anonymous   Login
Location: Feydey
(46.3431°N, 7.0106°E)
Time: 03:01:41
(UTC+00:00)
Language:

Cosmos 1802 Rocket - Orbit

View from above orbital plane
View from above orbital plane
View from above satellite
View from above satellite

Ground track
Ground track

The orbit data is extracted from the following two-line orbital elements,

1 17160U 86093B   21260.50192637  .00000023  00000-0  77337-5 0  9992
2 17160  82.9320 351.9497 0039868 138.4550 232.5674 13.74652582746008
Epoch (UTC): 17 September 2021 12:02:46
Eccentricity: 0.0039868
inclination: 82.9320°
perigee height: 953 km
apogee height: 1012 km
right ascension of ascending node: 351.9497°
argument of perigee: 138.4550°
revolutions per day: 13.74652582
mean anomaly at epoch: 232.5674°
orbit number at epoch: 74600

The dashed part of the orbit path shows where the satellite is in the earth's shadow,  

DLR